Bariloche, Argentina

9:02 AM ART on September 30, 2016 (GMT -0300)
S C De Bariloche

Weather History for SAZS - December, 2012

Change the Weather History Date:

Wednesday, December 5, 2012

  Actual Average Record
Temperature  
Mean Temperature 48 °F -  
Max Temperature 55 °F 63 °F 84 °F (2008)
Min Temperature 41 °F 42 °F 28 °F (2010)
Degree Days  
Heating Degree Days 17    
Moisture  
Dew Point 40 °F    
Average Humidity 67    
Maximum Humidity 81    
Minimum Humidity 40    
Precipitation  
Precipitation 0.00 in - - ()
Sea Level Pressure  
Sea Level Pressure 29.90 in    
Wind  
Wind Speed 9 mph ()    
Max Wind Speed 20 mph    
Max Gust Speed -    
Visibility 6.2 miles    
Events      
Averages and records for this station are not official NWS values.
T = Trace of Precipitation, MM = Missing Value Source: Averaged Metar Reports

Daily Weather History Graph

Daily Weather History Graph

Search for Another Location

Airport or City:

Trip Planner

Search our weather history database for the weather conditions in past years. The results will help you decide how hot, cold, wet, or windy it might be!

Date:

Astronomy

Dec. 05, 2012 Rise Set
Actual Time 6:05 AM ART 9:05 PM ART
Civil Twilight 5:32 AM ART 9:38 PM ART
Nautical Twilight 4:50 AM ART 10:21 PM ART
Astronomical Twilight 4:01 AM ART 11:10 PM ART
Moon 1:01 AM ART (12/5) 12:32 PM ART (12/5)
Length of Visible Light 16h 06m
Length of Day
15h 00m
Waning Gibbous, 61% of the Moon is Illuminated
Dec 5
Waning Gibbous
Dec 6
Last Quarter
Dec 13
New
Dec 20
First Quarter
Dec 28
Full

Hourly Weather History & Observations

Time (ART) Temp. Windchill Dew Point Humidity Pressure Visibility Wind Dir Wind Speed Gust Speed Precip Events Conditions
12:00 AM 50.0 °F - 41.0 °F 71% 29.92 in 6.2 mi Calm Calm - N/A   Partly Cloudy
1:00 AM 51.8 °F - 42.8 °F 71% 29.92 in 6.2 mi NW 6.9 mph - N/A   Partly Cloudy
2:00 AM 51.8 °F - 42.8 °F 71% 29.89 in 6.2 mi NW 17.3 mph - N/A   Partly Cloudy
3:00 AM 50 °F - 40 °F 60%  in 6 mi WNW 10.4 mph - -   Scattered Clouds
3:00 AM 50.0 °F - 41.0 °F 71% 29.92 in 6.2 mi WNW 10.4 mph - N/A   Partly Cloudy
4:00 AM 48.2 °F - 41.0 °F 76% 29.92 in 6.2 mi NW 6.9 mph - N/A   Partly Cloudy
5:00 AM 44.6 °F 40.7 °F 37.4 °F 76% 29.92 in 6.2 mi NW 6.9 mph - N/A   Partly Cloudy
6:00 AM 41.0 °F 37.1 °F 35.6 °F 81% 29.92 in 6.2 mi NW 5.8 mph - N/A   Scattered Clouds
7:00 AM 46.4 °F 44.3 °F 39.2 °F 76% 29.92 in 6.2 mi NW 4.6 mph - N/A   Scattered Clouds
8:00 AM 50.0 °F - 39.2 °F 66% 29.89 in 6.2 mi NW 11.5 mph - N/A   Mostly Cloudy
9:00 AM 50 °F - 40 °F 59%  in 6 mi NW 10.4 mph - -   Partly Cloudy
9:00 AM 50.0 °F - 39.2 °F 66% 29.92 in 6.2 mi NW 10.4 mph - N/A   Scattered Clouds
10:00 AM 50.0 °F - 39.2 °F 66% 29.92 in 6.2 mi NW 11.5 mph - N/A   Mostly Cloudy
12:00 PM 51.8 °F - 37.4 °F 58% 29.92 in 6.2 mi NW 18.4 mph - N/A   Scattered Clouds
1:00 PM 53.6 °F - 39.2 °F 58% 29.92 in 6.2 mi NW 13.8 mph - N/A   Mostly Cloudy
2:00 PM 55.4 °F - 33.8 °F 44% 29.92 in 6.2 mi NW 19.6 mph - N/A   Overcast
3:00 PM 56 °F - 39 °F 40%  in 6 mi NW 16.1 mph - -   Overcast
3:00 PM 55.4 °F - 39.2 °F 54% 29.89 in 6.2 mi NW 16.1 mph - N/A   Partly Cloudy
4:00 PM 55.4 °F - 42.8 °F 63% 29.89 in 6.2 mi NW 13.8 mph - N/A   Mostly Cloudy
5:00 PM 55.4 °F - 42.8 °F 63% 29.89 in 6.2 mi NW 13.8 mph - N/A   Overcast
6:00 PM 53.6 °F - 42.8 °F 67% 29.89 in 6.2 mi NW 10.4 mph - N/A   Overcast
7:00 PM 53.6 °F - 44.6 °F 72% 29.86 in 6.2 mi NW 6.9 mph - N/A   Overcast
8:00 PM 51.8 °F - 42.8 °F 71% 29.89 in 6.2 mi NW 8.1 mph - N/A   Overcast
9:00 PM 50 °F - 43 °F 68%  in 6 mi NW 8.1 mph - -   Overcast
9:00 PM 50.0 °F - 42.8 °F 76% 29.89 in 6.2 mi NW 8.1 mph - N/A   Overcast
10:00 PM 50.0 °F - 42.8 °F 76% 29.89 in 6.2 mi NW 13.8 mph - N/A   Mostly Cloudy
11:00 PM 46.4 °F 40.1 °F 39.2 °F 76% 29.89 in 6.2 mi WNW 15.0 mph - N/A   Scattered Clouds